Regional Weather Roundup
Issued by NWS San Diego, CA

Home | Current Version | Previous Version | Text Only | Print | Product List | Glossary On
Versions: 1 2 3 4 5 6 7 8 9 10 11 12 13 14 15 16 17 18 19 20 21 22 23 24 25 26 27 28 29 30 31 32 33 34 35 36 37 38 39 40 41 42 43 44 45 46 47 48 49 50
000
ASUS46 KSGX 012111
RWRSGX

SAN DIEGO HOURLY WEATHER ROUNDUP
NATIONAL WEATHER SERVICE SAN DIEGO CA
200 PM PDT TUE SEP 01 2015

NOTE: "FAIR" INDICATES FEW OR NO CLOUDS BELOW 12,000 FEET WITH NO
SIGNIFICANT WEATHER AND/OR OBSTRUCTIONS TO VISIBILITY.

CAZ042-043-060-061-PZZ750-775-012200-

GREATER SAN DIEGO AREA

CITY           SKY/WX    TMP DP  RH WIND       PRES   REMARKS
LINDBERGH FLD  PTSUNNY   73  61  65 W9        29.94R
POINT LOMA       N/A     71  60  67 W13         N/A
NATIONAL CITY    N/A     76  64  66 W7        29.93F
CHULA VISTA      N/A     76  65  70 W7        29.86S
IMPERIAL BEACH PTSUNNY   74  62  66 W13       29.93F
BROWN FIELD    MOSUNNY   75  61  61 W12       29.93S
MIRAMAR MCAS   PTSUNNY   77  60  55 W12       29.92S
MONTGOMERY FLD MOSUNNY   74  61  63 W14       29.93S

$$

NORTH SAN DIEGO COUNTY

CITY           SKY/WX    TMP DP  RH WIND       PRES   REMARKS
CAMP PENDLETON MOSUNNY   79  60  52 SW9G17    29.90F
OCEANSIDE AP   SUNNY     78  61  55 W10       29.90F
OCEANSIDE HBR    N/A     72  65  77 SW13      29.94S
VISTA            N/A     79  64  60 CALM      29.88F
CARLSBAD       MOSUNNY   74  63  68 W12       29.91F
DEL MAR          N/A     74  65  72 NW2       29.95S
LA JOLLA SCRIP   N/A    N/A N/A N/A W7        29.90S
FALLBROOK        N/A     83  60  45 W8        29.87F
ESCONDIDO        N/A     84  63  49 S3        29.91S
SAN MARCOS       N/A     77  64  64 W10       29.89S
POWAY            N/A     84  63  49 SE7       29.90

$$

EAST SAN DIEGO COUNTY

CITY           SKY/WX    TMP DP  RH WIND       PRES   REMARKS
RAMONA         MOSUNNY   83  57  41 W9        29.93F
SANTEE LAKES     N/A     81  64  57 S7        29.89S
LA MESA          N/A     77  64  63 SW3       29.85S
JAMUL            N/A     80  63  56 CALM      29.89F
DESCANSO N       N/A     81  54  38 CALM      29.77S
CAMPO            N/A     83  48  29 SW17      29.93S

$$

ORANGE COUNTY AND THE LOS ANGELES BASIN

CITY           SKY/WX    TMP DP  RH WIND       PRES   REMARKS
JOHN WAYNE AP  PTSUNNY   76  61  59 SW12      29.90F
LAGUNA BEACH     N/A     77  65  66 S7        29.87F
LAKE FOREST FR   N/A     84  58  40 CALM      29.78F
SANTA ANA        N/A     82  64  54 CALM      29.85F
HUNTINGTON BCH   N/A     76  66  69 SW2       29.94S
LOS ALAMITOS   PTSUNNY   78  62  58 SW9       29.90F
FULLERTON      PTSUNNY   81  60  48 VRB7      29.89F
LONG BEACH     PTSUNNY   77  60  55 VRB6      29.91S
L.A. AP        PTSUNNY   76  62  62 SW14G20   29.91S
L.A. DOWNTOWN  MOSUNNY   81  60  48 CALM      29.88F

$$

THE INLAND EMPIRE

CITY           SKY/WX    TMP DP  RH WIND       PRES   REMARKS
CORONA         MOSUNNY   84  57  39 W8        29.90F
CHINO          PTSUNNY   87  55  33 W9        29.90F
ONTARIO        PTSUNNY   85  54  34 SW9       29.90F
SAN BERNARDINO PTSUNNY   84  45  24 SW5       29.91F
RIVERSIDE AP   MOSUNNY   86  57  37 VRB6      29.89F
MORENO VALLEY    N/A     85  61  43 S1        29.89F
MARCH ARB      MOSUNNY   84  56  38 VRB6      29.92F
HORSETHIEF CYN   N/A     83  55  36 NW5       29.91F
PERRIS           N/A     86  56  35 NW7       29.92F
MENIFEE          N/A     87  56  34 S3        29.95F
HEMET EAST       N/A     83  46  27 SW5       29.92F
FRENCH VALLEY  FAIR      82  52  34 S8        29.92F
TEMECULA         N/A     84  59  43 W5        29.86F

$$

SAN BERNARDINO AND RIVERSIDE COUNTY MOUNTAINS

CITY           SKY/WX    TMP DP  RH WIND       PRES   REMARKS
BIG BEAR AP    MOSUNNY   75  30  19 SW3       30.19S
ANGELUS OAKS     N/A     76  52  42 W1        29.76S
PINE COVE        N/A     73  43  33 W3        29.85S

$$

SOUTHERN DESERT INCLUDING THE COACHELLA VALLEY

CITY           SKY/WX    TMP DP  RH WIND       PRES   REMARKS
PALM SPRINGS   SUNNY     98  58  26 MISG      29.81F HX  97
THOUSAND PALMS   N/A     97  68  38 E6        29.77F HX 102
PALM DESERT      N/A    101  69  35 S3        30.06S HX 107
THERMAL        SUNNY    100  69  36 SE12G20   29.74F HX 106
BLYTHE         PTSUNNY  100  65  31 S7G17     29.79F HX 103
IMPERIAL AP    SUNNY    100  68  35 VRB7      29.74F HX 105
EL CENTRO NAS  PTSUNNY  100  67  33 VRB5      29.76F HX 105
YUMA AZ        PTSUNNY  102  62  26 S14G23    29.78F HX 104
MEXICALI       PTSUNNY   99  59  26 SE12      29.78F HX  98

$$

UPPER DESERT

CITY           SKY/WX    TMP DP  RH WIND       PRES   REMARKS
VICTORVILLE AP MOSUNNY   91  25   9 S16G25    29.94F
HESPERIA         N/A     88  37  16 W16       29.91S
APPLE VALLEY     N/A     89  27  11 SW17G25   29.97S
PALMDALE       SUNNY     89  41  18 SW13      29.93F
LANCASTER      SUNNY     90  44  20 W14G23    29.92F
EDWARDS AFB    PTSUNNY   92  20   7 SW7       29.89F
DAGGETT        MOSUNNY  N/A N/A N/A NW5       29.87F
29 PALMS N     MOSUNNY   96  54  24 S9G26     29.93
NEEDLES        MOSUNNY  101  53  20 SW13G22   29.82F HX  99

$$

REGIONAL REPORTS

CITY           SKY/WX    TMP DP  RH WIND       PRES   REMARKS
SANTA BARBARA  MOSUNNY   75  62  64 SW7       29.91S
SANDBERG       SUNNY     80  34  19 S20G26    30.08S
LAS VEGAS NV   MOSUNNY   96  51  21 VRB5      29.84F
PHOENIX AZ     PTSUNNY   97  63  32 S8        29.86F HX  98
TIJUANA        PTSUNNY   75  59  57 W13       29.94F
ENSENADA NW      N/A     75  32  20 W3        29.91S

$$

OFFSHORE ISLANDS

CITY           SKY/WX    TMP DP  RH WIND       PRES   REMARKS
CATALINA ARPT  FOG       62  60  93 SW7       29.97S VSB 1/4
SAN CLEMENTE I PTSUNNY   69  63  80 S8        29.92F
SAN NICOLAS IS PTSUNNY   68  56  65 W6        29.93F

$$

MARINE AND OFFSHORE BUOY REPORTS

STATION/POSITION SKY/WX   TEMP    WIND        PRES    SWELL
                          AIR SEA DIR/SP/G            HT/PER/DIR
                          (F)     (DEG/KT/KT) (MB)    (FT/S/D)
TANNER BANKS               66 69  300/  8/ 12 1013.9F   7/290/11
S CLEMENTE BASIN           67 72  260/  8/ 10 1013.4F   5/250/15
SO. S. ROSA ISLA           64 66  320/ 12/ 14 1012.6S   7/11
W. S. BARBARA CH           65 69  310/ 12/ 14 1012.7F   7/300/12
M. S. BARBARA CH           67 68  250/  6/  8 1013.5F
S. MONICA BASIN            69 71  220/  6/  8 1012.9F   3/230/14
S PEDRO CHANNEL               73                N/A     2/260/14
DANA POINT                    74                N/A     2/200/11
OCEANSIDE OFFSHR              74                N/A     3/210/11
TORREY PINES OTR              75                N/A     3/210/11
LA JOLLA 1                 71 74  290/  6/ 10 1013.3F
MISSION BAY BUOY              75                N/A     2/210/14
SAN DIEGO BAY                 76              1013.9F
POINT LOMA SOUTH              73                N/A     3/230/14

$$




USA.gov is the U.S. government's official web portal to all federal, state and local government web resources and services.